tititudorancea.com
Station Historical Data
Daily Summary for March 4, 2019 Units:  Metric    English   Both
« Previous Day
Next Day »
Daily Weekly Monthly Yearly Custom
  High: Low: Average:
Temperature: -17.8 °C 12.8 °C 20.2 °C
Dew Point: -17.8 °C 8.1 °C 12.1 °C
Humidity: Humidity % 26 % 66 %
Wind Speed: 0 km/h 3.7 km/h 13.8 km/h
Wind Gust: 0 km/h - -
Wind:- - SW
Pressure: 0 hPa 1012.4 hPa -
Precipitation: 0 mm    
Historical Graphs
 
 
Ararat weather Find more about Weather in Ararat, AU


 



 


Tabular Data for March 4, 2019
Time Temperature Dew Point Pressure Wind Wind Speed Wind Gust Humidity Rainfall Rate (Hourly)
-17.8 °C -17.8 °C 0 hPa Calm     Humidity % 0 mm
00:04 16.1 °C 13.9 °C 1016.8 hPa South 7.4 km/h 7.1 km/h 87 % 0 mm
00:09 16.1 °C 13.9 °C 1016.8 hPa North 16.7 km/h 9.3 km/h 87 % 0 mm
00:14 15.9 °C 13.8 °C 1016.5 hPa North 13 km/h 6.4 km/h 87 % 0 mm
00:19 15.8 °C 13.7 °C 1016.5 hPa South 11.1 km/h 6.6 km/h 87 % 0 mm
00:24 15.7 °C 13.6 °C 1016.5 hPa South 14.8 km/h 7.7 km/h 87 % 0 mm
00:29 15.7 °C 13.5 °C 1016.5 hPa South 16.7 km/h 10.9 km/h 87 % 0 mm
00:34 15.6 °C 13.4 °C 1016.5 hPa South 13 km/h 10.5 km/h 87 % 0 mm
00:39 15.5 °C 13.3 °C 1016.5 hPa South 9.3 km/h 6.6 km/h 87 % 0 mm
00:44 15.4 °C 13.4 °C 1016.5 hPa North 13 km/h 5.6 km/h 88 % 0 mm
00:49 15.4 °C 13.4 °C 1016.5 hPa South 14.8 km/h 7.2 km/h 88 % 0 mm
00:54 15.3 °C 13.3 °C 1016.5 hPa North 11.1 km/h 11.4 km/h 88 % 0 mm
00:59 15.3 °C 13.3 °C 1016.5 hPa South 14.8 km/h 8.7 km/h 88 % 0 mm
01:04 15.3 °C 13.3 °C 1016.5 hPa North 14.8 km/h 7.6 km/h 88 % 0 mm
01:09 15.2 °C 13.2 °C 1016.5 hPa South 13 km/h 7.9 km/h 88 % 0 mm
01:14 15.1 °C 13.1 °C 1016.1 hPa North 11.1 km/h 7.6 km/h 88 % 0 mm
01:19 15 °C 13 °C 1016.5 hPa North 11.1 km/h 8.2 km/h 88 % 0 mm
01:24 14.9 °C 13 °C 1016.5 hPa North 13 km/h 8.5 km/h 88 % 0 mm
01:29 14.9 °C 12.9 °C 1016.5 hPa South 9.3 km/h 6.4 km/h 88 % 0 mm
01:34 14.8 °C 12.9 °C 1016.5 hPa North 11.1 km/h 7.4 km/h 88 % 0 mm
01:39 14.8 °C 12.8 °C 1016.5 hPa South 11.1 km/h 8.7 km/h 88 % 0 mm
01:44 14.7 °C 12.8 °C 1016.5 hPa South 13 km/h 10 km/h 88 % 0 mm
01:49 14.7 °C 12.7 °C 1016.5 hPa North 14.8 km/h 6.8 km/h 88 % 0 mm
01:54 14.6 °C 12.7 °C 1016.5 hPa North 14.8 km/h 8.5 km/h 88 % 0 mm
01:59 14.6 °C 12.8 °C 1016.1 hPa South 13 km/h 9 km/h 89 % 0 mm
02:04 14.5 °C 12.7 °C 1016.1 hPa North 13 km/h 8.5 km/h 89 % 0 mm
02:09 14.4 °C 12.7 °C 1016.1 hPa North 7.4 km/h 6.3 km/h 89 % 0 mm
02:14 14.3 °C 12.6 °C 1016.5 hPa North 14.8 km/h 10.5 km/h 89 % 0 mm
02:19 14.3 °C 12.5 °C 1016.1 hPa North 9.3 km/h 7.4 km/h 89 % 0 mm
02:24 14.3 °C 12.5 °C 1016.1 hPa South 14.8 km/h 8.4 km/h 89 % 0 mm
02:29 14.2 °C 12.6 °C 1016.1 hPa North 13 km/h 8.7 km/h 90 % 0 mm
02:34 14.2 °C 12.6 °C 1016.1 hPa South 11.1 km/h 7.7 km/h 90 % 0 mm
02:39 14.2 °C 12.6 °C 1015.8 hPa South 11.3 km/h 7.9 km/h 90 % 0 mm
02:44 14.1 °C 12.5 °C 1015.8 hPa South 13 km/h 4.2 km/h 90 % 0 mm
02:49 14.1 °C 12.4 °C 1015.8 hPa South 9.7 km/h 6 km/h 90 % 0 mm
02:54 14.1 °C 12.6 °C 1015.8 hPa North 14.8 km/h 9.7 km/h 91 % 0 mm
02:59 14 °C 12.6 °C 1015.8 hPa North 9.3 km/h 7.4 km/h 91 % 0 mm
03:04 14 °C 12.6 °C 1015.8 hPa South 5.6 km/h 4.3 km/h 91 % 0 mm
03:09 13.9 °C 12.5 °C 1015.5 hPa North 12.9 km/h 8.5 km/h 91 % 0 mm
03:14 13.9 °C 12.5 °C 1015.5 hPa South 11.3 km/h 8.9 km/h 91 % 0 mm
03:19 13.9 °C 12.4 °C 1015.5 hPa North 13 km/h 10.3 km/h 91 % 0 mm
03:24 13.8 °C 12.4 °C 1015.5 hPa South 14.5 km/h 10.1 km/h 91 % 0 mm
03:29 13.8 °C 12.6 °C 1015.8 hPa South 13 km/h 9.8 km/h 92 % 0 mm
03:34 13.8 °C 12.5 °C 1015.5 hPa South 14.8 km/h 8.4 km/h 92 % 0 mm
03:39 13.8 °C 12.5 °C 1015.8 hPa North 11.1 km/h 8.2 km/h 92 % 0 mm
03:44 13.8 °C 12.5 °C 1015.8 hPa South 14.8 km/h 7.9 km/h 92 % 0 mm
03:49 13.8 °C 12.5 °C 1015.8 hPa South 18.5 km/h 11.4 km/h 92 % 0 mm
03:54 13.7 °C 12.4 °C 1015.8 hPa North 14.8 km/h 11.4 km/h 92 % 0 mm
03:59 13.7 °C 12.4 °C 1015.8 hPa South 14.8 km/h 11.7 km/h 92 % 0 mm
04:04 13.6 °C 12.3 °C 1015.8 hPa South 16.1 km/h 9.5 km/h 92 % 0 mm
04:09 13.5 °C 12.2 °C 1015.8 hPa South 11.1 km/h 9.3 km/h 92 % 0 mm
04:14 13.4 °C 12.2 °C 1015.8 hPa South 18.5 km/h 9.8 km/h 92 % 0 mm
04:19 13.4 °C 12.1 °C 1015.8 hPa North 11.1 km/h 10.6 km/h 92 % 0 mm
04:24 13.4 °C 12.3 °C 1015.8 hPa North 14.8 km/h 13.4 km/h 93 % 0 mm
04:29 13.3 °C 12.2 °C 1015.8 hPa South 16.7 km/h 11.3 km/h 93 % 0 mm
04:34 13.3 °C 12.2 °C 1015.8 hPa North 13 km/h 11.7 km/h 93 % 0 mm
04:39 13.2 °C 12.1 °C 1015.8 hPa North 13 km/h 9 km/h 93 % 0 mm
04:44 13.2 °C 12.1 °C 1015.8 hPa South 13 km/h 7.4 km/h 93 % 0 mm
04:49 13.2 °C 12.1 °C 1015.8 hPa South 11.1 km/h 5.8 km/h 93 % 0 mm
04:54 13.1 °C 12 °C 1015.8 hPa North 13 km/h 6.6 km/h 93 % 0 mm
04:59 13.1 °C 11.9 °C 1015.8 hPa North 11.1 km/h 9.3 km/h 93 % 0 mm
05:04 13.1 °C 11.9 °C 1015.8 hPa North 14.8 km/h 9.8 km/h 93 % 0 mm
05:09 13 °C 11.9 °C 1015.8 hPa North 13 km/h 9.8 km/h 93 % 0 mm
05:14 13 °C 11.9 °C 1015.8 hPa North 11.1 km/h 8.2 km/h 93 % 0 mm
05:19 13 °C 11.9 °C 1015.8 hPa North 9.3 km/h 7.7 km/h 93 % 0 mm
05:24 13 °C 11.9 °C 1015.8 hPa North 16.7 km/h 10.1 km/h 93 % 0 mm
05:29 13 °C 11.9 °C 1015.8 hPa South 13 km/h 7.9 km/h 93 % 0 mm
05:34 13 °C 11.9 °C 1015.8 hPa North 13 km/h 9.2 km/h 93 % 0 mm
05:39 13 °C 11.9 °C 1015.8 hPa North 11.1 km/h 7.6 km/h 93 % 0 mm
05:44 13 °C 11.9 °C 1015.8 hPa North 11.1 km/h 8 km/h 93 % 0 mm
05:49 13 °C 11.9 °C 1015.8 hPa North 18.5 km/h 11.4 km/h 93 % 0 mm
05:54 12.9 °C 11.8 °C 1015.8 hPa SSW 14.8 km/h 8.4 km/h 93 % 0 mm
05:59 12.9 °C 11.8 °C 1015.8 hPa South 14.8 km/h 7.2 km/h 93 % 0 mm
06:04 12.9 °C 11.8 °C 1015.8 hPa South 13 km/h 11.1 km/h 93 % 0 mm
06:09 12.8 °C 11.7 °C 1015.8 hPa South 13 km/h 9.8 km/h 93 % 0 mm
06:14 12.8 °C 11.7 °C 1016.1 hPa North 14.8 km/h 11.4 km/h 93 % 0 mm
06:19 12.8 °C 11.7 °C 1016.1 hPa North 13 km/h 7.7 km/h 93 % 0 mm
06:24 12.8 °C 11.7 °C 1016.1 hPa South 9.3 km/h 7.7 km/h 93 % 0 mm
06:29 12.8 °C 11.7 °C 1015.8 hPa North 13 km/h 6.6 km/h 93 % 0 mm
06:34 12.8 °C 11.7 °C 1016.1 hPa South 14.8 km/h 9.3 km/h 93 % 0 mm
06:39 12.8 °C 11.7 °C 1016.1 hPa North 11.1 km/h 8.7 km/h 93 % 0 mm
06:44 12.8 °C 11.7 °C 1016.1 hPa North 16.7 km/h 10.8 km/h 93 % 0 mm
06:49 12.8 °C 11.7 °C 1016.1 hPa North 18.5 km/h 10.6 km/h 93 % 0 mm
06:54 12.8 °C 11.7 °C 1016.1 hPa South 11.1 km/h 10.9 km/h 93 % 0 mm
06:59 12.8 °C 11.7 °C 1016.1 hPa South 13 km/h 7.9 km/h 93 % 0 mm
07:04 12.8 °C 11.7 °C 1016.1 hPa North 11.3 km/h 11.4 km/h 93 % 0 mm
07:09 12.8 °C 11.7 °C 1016.5 hPa North 14.8 km/h 8.2 km/h 93 % 0 mm
07:14 12.8 °C 11.7 °C 1016.1 hPa North 16.7 km/h 10.8 km/h 93 % 0 mm
07:19 12.8 °C 11.7 °C 1016.1 hPa North 14.8 km/h 10.6 km/h 93 % 0 mm
07:24 12.8 °C 11.7 °C 1016.1 hPa South 9.3 km/h 8.4 km/h 93 % 0 mm
07:29 12.8 °C 11.7 °C 1016.5 hPa South 16.7 km/h 11.6 km/h 93 % 0 mm
07:34 12.8 °C 11.7 °C 1016.5 hPa South 11.1 km/h 6.9 km/h 93 % 0 mm
07:39 12.8 °C 11.7 °C 1016.5 hPa South 16.7 km/h 10.6 km/h 93 % 0 mm
07:44 12.8 °C 11.7 °C 1016.5 hPa North 8 km/h 5.1 km/h 93 % 0 mm
07:49 12.8 °C 11.7 °C 1016.8 hPa South 9.7 km/h 7.2 km/h 93 % 0 mm
07:54 12.9 °C 11.8 °C 1016.8 hPa North 11.1 km/h 6 km/h 93 % 0 mm
07:59 12.9 °C 12 °C 1016.8 hPa North 9.3 km/h 3.5 km/h 94 % 0 mm
08:04 12.9 °C 12 °C 1016.8 hPa North 11.3 km/h 8.4 km/h 94 % 0 mm
08:09 12.9 °C 12 °C 1016.8 hPa North 9.3 km/h 3.5 km/h 94 % 0 mm
08:14 12.9 °C 12 °C 1016.8 hPa South 11.3 km/h 8 km/h 94 % 0 mm
08:19 12.9 °C 12 °C 1017.2 hPa South 9.3 km/h 6.3 km/h 94 % 0 mm
08:24 13 °C 12.1 °C 1016.8 hPa South 9.3 km/h 6.9 km/h 94 % 0 mm
08:29 12.9 °C 12 °C 1016.8 hPa North 11.1 km/h 8.4 km/h 94 % 0 mm
08:34 12.9 °C 11.9 °C 1017.2 hPa North 9.3 km/h 6.3 km/h 94 % 0 mm
08:39 12.9 °C 12 °C 1017.2 hPa North 11.1 km/h 10.6 km/h 94 % 0 mm
08:44 13 °C 12.1 °C 1017.2 hPa North 9.7 km/h 9.3 km/h 94 % 0 mm
08:49 12.9 °C 12 °C 1017.2 hPa North 11.3 km/h 8.4 km/h 94 % 0 mm
08:54 12.9 °C 12 °C 1017.2 hPa South 11.1 km/h 7.2 km/h 94 % 0 mm
08:59 12.9 °C 12 °C 1017.2 hPa South 16.1 km/h 11.7 km/h 94 % 0 mm
09:04 13.1 °C 12.1 °C 1017.2 hPa South 9.3 km/h 7.9 km/h 94 % 0 mm
09:09 13.2 °C 12.3 °C 1017.2 hPa South 8 km/h 6 km/h 94 % 0 mm
09:14 13.4 °C 12.5 °C 1017.2 hPa North 9.3 km/h 4.8 km/h 94 % 0 mm
09:19 13.7 °C 12.8 °C 1017.2 hPa South 7.4 km/h 4.2 km/h 94 % 0 mm
09:24 14.1 °C 13.1 °C 1017.2 hPa North 9.3 km/h 5.3 km/h 94 % 0 mm
09:29 14.4 °C 13.3 °C 1017.2 hPa North 11.1 km/h 7.2 km/h 93 % 0 mm
09:34 14.6 °C 13.5 °C 1017.2 hPa South 9.3 km/h 8.7 km/h 93 % 0 mm
09:39 14.8 °C 13.4 °C 1017.2 hPa South 11.1 km/h 8 km/h 91 % 0 mm
09:44 15 °C 13.2 °C 1017.2 hPa South 14.8 km/h 9.3 km/h 89 % 0 mm
09:49 15.2 °C 13.4 °C 1017.2 hPa South 14.8 km/h 7.1 km/h 89 % 0 mm
09:54 15.6 °C 13.6 °C 1017.2 hPa South 11.3 km/h 5.8 km/h 88 % 0 mm
09:59 16 °C 13.7 °C 1017.2 hPa South 16.1 km/h 12.4 km/h 86 % 0 mm
10:04 16.3 °C 13.6 °C 1017.2 hPa South 11.1 km/h 7.9 km/h 84 % 0 mm
10:09 16.6 °C 13.7 °C 1017.2 hPa South 11.1 km/h 5.3 km/h 83 % 0 mm
10:14 16.8 °C 13.7 °C 1017.2 hPa South 11.1 km/h 7.6 km/h 82 % 0 mm
10:19 17.2 °C 13.9 °C 1017.2 hPa South 9.3 km/h 6 km/h 81 % 0 mm
10:24 17.6 °C 13.9 °C 1017.2 hPa South 14.8 km/h 5.8 km/h 79 % 0 mm
10:29 17.9 °C 13.8 °C 1017.2 hPa South 13 km/h 12.9 km/h 77 % 0 mm
10:34 18.1 °C 14 °C 1017.2 hPa South 13 km/h 9.3 km/h 77 % 0 mm
10:39 18.3 °C 13.8 °C 1017.2 hPa South 14.8 km/h 11.9 km/h 75 % 0 mm
10:44 18.6 °C 14.1 °C 1017.2 hPa South 16.7 km/h 11.4 km/h 75 % 0 mm
10:49 18.8 °C 13.9 °C 1016.8 hPa South 16.7 km/h 13.8 km/h 73 % 0 mm
10:54 18.9 °C 13.9 °C 1016.8 hPa South 11.1 km/h 7.2 km/h 73 % 0 mm
10:59 19.2 °C 14 °C 1017.2 hPa South 11.1 km/h 8.2 km/h 72 % 0 mm
11:04 19.3 °C 14.1 °C 1017.2 hPa South 14.8 km/h 7.1 km/h 72 % 0 mm
11:09 19.5 °C 14.1 °C 1017.2 hPa South 11.1 km/h 7.7 km/h 71 % 0 mm
11:14 19.7 °C 14.1 °C 1017.2 hPa South 14.5 km/h 10.1 km/h 70 % 0 mm
11:19 20 °C 14.3 °C 1017.2 hPa South 16.7 km/h 11.4 km/h 70 % 0 mm
11:24 20.4 °C 14.3 °C 1017.2 hPa South 16.7 km/h 12.1 km/h 68 % 0 mm
11:29 20.7 °C 14.6 °C 1016.8 hPa SSW 11.1 km/h 7.1 km/h 68 % 0 mm
11:34 21.2 °C 14.6 °C 1016.8 hPa South 13 km/h 10.8 km/h 66 % 0 mm
11:39 21.4 °C 14.6 °C 1016.8 hPa South 14.8 km/h 7.1 km/h 65 % 0 mm
11:44 21.6 °C 14.4 °C 1017.2 hPa SSW 18.5 km/h 9.8 km/h 64 % 0 mm
11:49 21.8 °C 14.4 °C 1016.8 hPa SSW 14.8 km/h 13.7 km/h 63 % 0 mm
11:54 22.2 °C 14.8 °C 1016.8 hPa South 11.3 km/h 11.7 km/h 63 % 0 mm
11:59 22.4 °C 14.7 °C 1016.8 hPa South 18.5 km/h 13 km/h 62 % 0 mm
12:04 22.8 °C 14.7 °C 1016.8 hPa South 11.3 km/h 7.7 km/h 60 % 0 mm
12:09 23.2 °C 15 °C 1016.8 hPa South 11.3 km/h 7.4 km/h 60 % 0 mm
12:14 23.7 °C 14.9 °C 1016.8 hPa South 9.7 km/h 7.4 km/h 58 % 0 mm
12:19 23.8 °C 14.8 °C 1016.8 hPa South 7.4 km/h 3.1 km/h 57 % 0 mm
12:24 24.1 °C 14.8 °C 1016.5 hPa SSW 14.5 km/h 10.1 km/h 56 % 0 mm
12:29 24.3 °C 14.9 °C 1016.5 hPa South 14.8 km/h 8.2 km/h 56 % 0 mm
12:34 24.4 °C 14.6 °C 1016.5 hPa SSW 11.1 km/h 3.7 km/h 54 % 0 mm
12:39 24.8 °C 14.6 °C 1016.5 hPa SSW 9.3 km/h 2.7 km/h 53 % 0 mm
12:44 25.2 °C 14.7 °C 1016.5 hPa SSW 14.8 km/h 12.4 km/h 52 % 0 mm
12:49 25.4 °C 14.5 °C 1016.1 hPa South 14.8 km/h 4.3 km/h 51 % 0 mm
12:54 26.1 °C 14.8 °C 1016.1 hPa SSW 11.1 km/h 4.3 km/h 50 % 0 mm
12:59 26.3 °C 14.7 °C 1016.1 hPa SSW 11.1 km/h 6.4 km/h 49 % 0 mm
13:04 26.7 °C 14.7 °C 1015.8 hPa SSW 9.7 km/h 6.8 km/h 48 % 0 mm
13:09 27.2 °C 14.6 °C 1015.8 hPa South 13 km/h 9 km/h 46 % 0 mm
13:14 27.1 °C 14.2 °C 1015.8 hPa South 13 km/h 7.9 km/h 45 % 0 mm
13:19 27.3 °C 14.3 °C 1015.8 hPa South 9.3 km/h 7.1 km/h 45 % 0 mm
13:24 27.5 °C 14.2 °C 1015.8 hPa South 14.8 km/h 11.6 km/h 44 % 0 mm
13:29 27.5 °C 13.8 °C 1015.5 hPa South 14.5 km/h 10.3 km/h 43 % 0 mm
13:34 27.7 °C 14 °C 1015.5 hPa South 9.3 km/h 6.6 km/h 43 % 0 mm
13:39 28.3 °C 14.2 °C 1015.5 hPa South 7.4 km/h 4.5 km/h 42 % 0 mm
13:44 28.5 °C 13.9 °C 1015.5 hPa South 11.1 km/h 8.4 km/h 41 % 0 mm
13:49 28.6 °C 14 °C 1015.5 hPa SSE 14.8 km/h 11.1 km/h 41 % 0 mm
13:54 28.7 °C 13.4 °C 1015.5 hPa SSE 13 km/h 6.9 km/h 39 % 0 mm
13:59 28.8 °C 13.8 °C 1015.1 hPa SSE 12.9 km/h 8.9 km/h 40 % 0 mm
14:04 29 °C 13.7 °C 1015.1 hPa SSE 14.8 km/h 11.4 km/h 39 % 0 mm
14:09 29 °C 13.7 °C 1015.1 hPa South 16.7 km/h 13 km/h 39 % 0 mm
14:14 29.1 °C 13.3 °C 1015.1 hPa South 8 km/h 1.9 km/h 38 % 0 mm
14:19 29.5 °C 13.3 °C 1015.1 hPa SE 11.3 km/h 9.3 km/h 37 % 0 mm
14:24 30.5 °C 13.7 °C 1015.1 hPa SE 14.8 km/h 7.4 km/h 36 % 0 mm
14:29 30.2 °C 13.5 °C 1015.1 hPa SSE 7.4 km/h 1.9 km/h 36 % 0 mm
14:34 30.2 °C 13 °C 1014.8 hPa SSE 9.3 km/h 0.2 km/h 35 % 0 mm
14:39 30.2 °C 13.1 °C 1014.8 hPa SSE 7.4 km/h 4.8 km/h 35 % 0 mm
14:44 30.4 °C 13.3 °C 1014.8 hPa SSE 7.4 km/h 5.1 km/h 35 % 0 mm
14:49 30.9 °C 13.2 °C 1014.8 hPa SSE 7.4 km/h 7.6 km/h 34 % 0 mm
14:54 30.9 °C 12.3 °C 1014.4 hPa SSW 13 km/h 9 km/h 32 % 0 mm
14:59 30.7 °C 12.6 °C 1014.4 hPa SSW 11.1 km/h 3.9 km/h 33 % 0 mm
15:04 30.9 °C 12.3 °C 1014.4 hPa SW 9.7 km/h 4 km/h 32 % 0 mm
15:09 31.2 °C 12.1 °C 1014.4 hPa SW 9.3 km/h 1.9 km/h 31 % 0 mm
15:14 31.3 °C 12.1 °C 1014.4 hPa SW 9.7 km/h 6 km/h 31 % 0 mm
15:19 31.4 °C 12.3 °C 1014.1 hPa SW 5.6 km/h 0.8 km/h 31 % 0 mm
15:24 31.7 °C 12.5 °C 1014.1 hPa SW 9.3 km/h 5.5 km/h 31 % 0 mm
15:29 31.8 °C 12.6 °C 1014.1 hPa SW 13 km/h 9.3 km/h 31 % 0 mm
15:34 31.7 °C 12 °C 1014.1 hPa SW 11.1 km/h 7.9 km/h 30 % 0 mm
15:39 31.6 °C 11.9 °C 1014.1 hPa SW 9.3 km/h 5.6 km/h 30 % 0 mm
15:44 31.9 °C 11.7 °C 1013.8 hPa SW 5.6 km/h 3.5 km/h 29 % 0 mm
15:49 32.5 °C 11.6 °C 1013.8 hPa WSW 14.8 km/h 7.2 km/h 28 % 0 mm
15:54 32.7 °C 11.8 °C 1013.8 hPa WSW 13 km/h 10.1 km/h 28 % 0 mm
15:59 32.7 °C 11.8 °C 1013.8 hPa WSW 5.6 km/h 5.6 km/h 28 % 0 mm
16:04 32.8 °C 11.3 °C 1013.4 hPa West 18.5 km/h 7.1 km/h 27 % 0 mm
16:09 32.5 °C 11.1 °C 1013.4 hPa WNW 14.8 km/h 10.6 km/h 27 % 0 mm
16:14 32.7 °C 11.3 °C 1013.4 hPa WNW 17.7 km/h 15.1 km/h 27 % 0 mm
16:19 32.6 °C 11.2 °C 1013.4 hPa WNW 3.7 km/h   27 % 0 mm
16:24 32.8 °C 11.3 °C 1013.4 hPa West 14.8 km/h 11.3 km/h 27 % 0 mm
16:29 33 °C 11.5 °C 1013.1 hPa West 9.7 km/h 5.3 km/h 27 % 0 mm
16:34 33.3 °C 11.2 °C 1013.1 hPa West 14.8 km/h 10.8 km/h 26 % 0 mm
16:39 33.3 °C 11.2 °C 1013.1 hPa West 16.7 km/h 8.5 km/h 26 % 0 mm
16:44 33.3 °C 11.2 °C 1013.1 hPa WNW 18.5 km/h 9.5 km/h 26 % 0 mm
16:49 33.2 °C 11.1 °C 1012.8 hPa WNW 7.4 km/h 3.7 km/h 26 % 0 mm
16:54 33.3 °C 11.8 °C 1012.8 hPa SSE 18.5 km/h 11.4 km/h 27 % 0 mm
16:59 33.1 °C 11.6 °C 1012.8 hPa SSE 11.3 km/h 5.1 km/h 27 % 0 mm
17:04 32.9 °C 11.4 °C 1012.8 hPa South 14.8 km/h 13.5 km/h 27 % 0 mm
17:09 32.6 °C 11.1 °C 1012.8 hPa SW 16.7 km/h 11.9 km/h 27 % 0 mm
17:14 32.3 °C 11.5 °C 1012.8 hPa WSW 14.8 km/h 11.7 km/h 28 % 0 mm
17:19 32.3 °C 10.9 °C 1012.8 hPa SW 14.8 km/h 10.6 km/h 27 % 0 mm
17:24 32.2 °C 10.8 °C 1012.8 hPa SW 18.5 km/h 13.5 km/h 27 % 0 mm
17:29 32.3 °C 10.9 °C 1012.8 hPa SW 13 km/h 9.2 km/h 27 % 0 mm
17:34 32.3 °C 10.9 °C 1012.4 hPa SW 18.5 km/h 13.7 km/h 27 % 0 mm
17:39 31.9 °C 10.6 °C 1012.8 hPa SSW 13 km/h 11.6 km/h 27 % 0 mm
17:44 31.6 °C 10.8 °C 1012.8 hPa SSW 18.5 km/h 12.1 km/h 28 % 0 mm
17:49 31.3 °C 10.6 °C 1012.8 hPa SW 18.5 km/h 9.5 km/h 28 % 0 mm
17:54 31.2 °C 10.6 °C 1012.8 hPa SW 18.5 km/h 10.3 km/h 28 % 0 mm
17:59 31.2 °C 10.6 °C 1012.8 hPa SSW 11.1 km/h 6.3 km/h 28 % 0 mm
18:04 31.2 °C 10.6 °C 1012.8 hPa SSW 13 km/h 7.1 km/h 28 % 0 mm
18:09 31.4 °C 10.7 °C 1012.8 hPa SSW 14.8 km/h 7.7 km/h 28 % 0 mm
18:14 31.3 °C 10.6 °C 1012.8 hPa SSW 14.8 km/h 8.4 km/h 28 % 0 mm
18:19 31.3 °C 10.6 °C 1012.8 hPa SW 9.3 km/h 8.7 km/h 28 % 0 mm
18:24 31.3 °C 10.1 °C 1012.8 hPa SW 14.8 km/h 10.9 km/h 27 % 0 mm
18:29 31.1 °C 10.4 °C 1012.8 hPa SSW 20.9 km/h 14.6 km/h 28 % 0 mm
18:34 30.9 °C 10.3 °C 1012.8 hPa SW 14.5 km/h 11.4 km/h 28 % 0 mm
18:39 30.7 °C 10.1 °C 1013.1 hPa SSW 14.8 km/h 8.9 km/h 28 % 0 mm
18:44 29.6 °C 12.1 °C 1013.4 hPa SSW 35.2 km/h 20.9 km/h 34 % 0 mm
18:49 28.3 °C 12.7 °C 1013.4 hPa SSW 24.1 km/h 16.9 km/h 38 % 0 mm
18:54 27.6 °C 12.8 °C 1013.4 hPa South 25.7 km/h 20.9 km/h 40 % 0 mm
18:59 27.1 °C 13.1 °C 1013.4 hPa South 27.8 km/h 14.5 km/h 42 % 0 mm
19:04 26.7 °C 13.1 °C 1013.4 hPa SSE 20.9 km/h 18.3 km/h 43 % 0 mm
19:09 26.3 °C 13.4 °C 1013.8 hPa South 19.3 km/h 14.2 km/h 45 % 0 mm
19:14 25.9 °C 13.4 °C 1013.8 hPa South 25.9 km/h 13.5 km/h 46 % 0 mm
19:19 25.6 °C 13.4 °C 1013.8 hPa SSW 18.5 km/h 8 km/h 47 % 0 mm
19:24 25.2 °C 13.4 °C 1013.8 hPa SSW 27.4 km/h 18.8 km/h 48 % 0 mm
19:29 24.9 °C 13.4 °C 1014.1 hPa South 14.8 km/h 11.3 km/h 49 % 0 mm
19:34 24.5 °C 13.4 °C 1014.1 hPa SSW 22.5 km/h 15.4 km/h 50 % 0 mm
19:39 24.2 °C 13.4 °C 1014.1 hPa South 18.5 km/h 11.7 km/h 51 % 0 mm
19:44 23.8 °C 13.4 °C 1014.1 hPa SSW 18.5 km/h 14.2 km/h 52 % 0 mm
19:49 23.6 °C 13.1 °C 1014.1 hPa SSW 11.1 km/h 11.4 km/h 52 % 0 mm
19:54 23.2 °C 13.1 °C 1014.1 hPa SSW 18.5 km/h 14.2 km/h 53 % 0 mm
19:59 22.9 °C 12.8 °C 1014.1 hPa South 16.7 km/h 12.9 km/h 53 % 0 mm
20:04 22.6 °C 12.6 °C 1014.4 hPa SSW 24.1 km/h 14.6 km/h 53 % 0 mm
20:09 22.3 °C 12.6 °C 1014.4 hPa South 20.4 km/h 10.8 km/h 54 % 0 mm
20:14 22.1 °C 12.4 °C 1014.4 hPa South 16.7 km/h 7.9 km/h 54 % 0 mm
20:19 21.8 °C 12.4 °C 1014.4 hPa South 18.5 km/h 10.8 km/h 55 % 0 mm
20:24 21.7 °C 12.2 °C 1014.4 hPa South 18.5 km/h 10.3 km/h 55 % 0 mm
20:29 21.4 °C 12 °C 1014.8 hPa SSE 31.5 km/h 11.6 km/h 55 % 0 mm
20:34 21.2 °C 12.1 °C 1014.8 hPa South 19.3 km/h 14.8 km/h 56 % 0 mm
20:39 21.1 °C 11.9 °C 1014.8 hPa SSE 18.5 km/h 9.8 km/h 56 % 0 mm
20:44 20.8 °C 11.7 °C 1014.8 hPa South 18.5 km/h 10.3 km/h 56 % 0 mm
20:49 20.7 °C 11.6 °C 1014.8 hPa South 14.8 km/h 14.2 km/h 56 % 0 mm
20:54 20.6 °C 11.2 °C 1015.1 hPa South 24.1 km/h 9.3 km/h 55 % 0 mm
20:59 20.4 °C 11.1 °C 1015.1 hPa South 22.2 km/h 15 km/h 55 % 0 mm
21:04 20.2 °C 10.6 °C 1015.1 hPa South 18.5 km/h 12.1 km/h 54 % 0 mm
21:09 20.1 °C 10.5 °C 1015.1 hPa South 18.5 km/h 14 km/h 54 % 0 mm
21:14 20 °C 10.1 °C 1015.1 hPa South 16.7 km/h 13.5 km/h 53 % 0 mm
21:19 19.9 °C 9.7 °C 1015.1 hPa South 14.8 km/h 9.8 km/h 52 % 0 mm
21:24 19.8 °C 9.6 °C 1015.1 hPa South 18.5 km/h 13.2 km/h 52 % 0 mm
21:29 19.7 °C 9.2 °C 1015.1 hPa South 19.3 km/h 9.5 km/h 51 % 0 mm
21:34 19.6 °C 9.2 °C 1015.1 hPa South 18.5 km/h 12.7 km/h 51 % 0 mm
21:39 19.4 °C 8.7 °C 1015.5 hPa South 18.5 km/h 12.9 km/h 50 % 0 mm
21:44 19.3 °C 8.7 °C 1015.1 hPa South 14.5 km/h 8.5 km/h 50 % 0 mm
21:49 19.2 °C 8.8 °C 1015.5 hPa South 20.4 km/h 12.1 km/h 51 % 0 mm
21:54 19.1 °C 8.7 °C 1015.5 hPa South 13 km/h 6.9 km/h 51 % 0 mm
21:59 18.9 °C 8.6 °C 1015.5 hPa South 14.8 km/h 9.7 km/h 51 % 0 mm
22:04 18.8 °C 8.4 °C 1015.5 hPa South 14.8 km/h 8.5 km/h 51 % 0 mm
22:09 18.7 °C 8.3 °C 1015.5 hPa South 18.5 km/h 12.1 km/h 51 % 0 mm
22:14 18.5 °C 8.2 °C 1015.5 hPa South 13 km/h 10.3 km/h 51 % 0 mm
22:19 18.4 °C 8.1 °C 1015.5 hPa South 13 km/h 10.5 km/h 51 % 0 mm
22:24 18.3 °C 8.2 °C 1015.5 hPa South 14.8 km/h 8.5 km/h 52 % 0 mm
22:29 18.1 °C 8.1 °C 1015.5 hPa South 13 km/h 9.3 km/h 52 % 0 mm
22:34 18 °C 8.3 °C 1015.5 hPa South 13 km/h 9.5 km/h 53 % 0 mm
22:39 17.8 °C 8.4 °C 1015.5 hPa South 13 km/h 10 km/h 54 % 0 mm
22:44 17.7 °C 8.3 °C 1015.5 hPa South 20.4 km/h 10.3 km/h 54 % 0 mm
22:49 17.6 °C 8.4 °C 1015.5 hPa South 20.4 km/h 8.7 km/h 55 % 0 mm
22:54 17.4 °C 8.6 °C 1015.5 hPa South 12.9 km/h 8.5 km/h 56 % 0 mm
22:59 17.3 °C 8.7 °C 1015.1 hPa South 16.7 km/h 8.5 km/h 57 % 0 mm
23:04 17.2 °C 8.6 °C 1015.1 hPa South 16.7 km/h 9.5 km/h 57 % 0 mm
23:09 17.1 °C 8.8 °C 1015.1 hPa South 16.1 km/h 7.4 km/h 58 % 0 mm
23:14 17 °C 8.9 °C 1015.1 hPa South 13 km/h 7.7 km/h 59 % 0 mm
23:15 17 °C 8.9 °C 1015.1 hPa South 11.1 km/h 7.9 km/h 59 % 0 mm
23:29 16.8 °C 8.9 °C 1014.8 hPa SSW 14.8 km/h 7.6 km/h 60 % 0 mm
23:34 16.7 °C 9.2 °C 1014.8 hPa South 13 km/h 10.6 km/h 61 % 0 mm
23:39 16.7 °C 9.1 °C 1014.8 hPa South 14.8 km/h 11.1 km/h 61 % 0 mm
23:44 16.6 °C 9.2 °C 1014.4 hPa South 11.3 km/h 9.2 km/h 62 % 0 mm
23:49 16.4 °C 9.1 °C 1014.4 hPa South 11.1 km/h 7.6 km/h 62 % 0 mm
23:54 16.4 °C 9.1 °C 1014.4 hPa South 14.8 km/h 8 km/h 62 % 0 mm
23:59 16.3 °C 9.1 °C 1014.4 hPa South 16.7 km/h 10.9 km/h 62 % 0 mm
Ararat Weather
Compliments of Weather Underground - 2.5 mb
Click here to send mail.


ABOUT

Live weather data from Ararat, Victoria, Australia, 3377
Data uploaded from Cumulus every 5 minutes to Weather Underground.
This site then downloads the raw data for formatting and display.
Metric and imperial data can be displayed. Graphs and historical data available.
Includes Sun and Moon times and rain image live from BOM.

Check out Ararat Weather on Facebook, Twitter and Google +

Help support ongoing costs by checking out the ads





Follow @AraratWeather